AFR2150 KLAX-TFFF

Flight info

Callsign AFR2150
Flight time N/A
Altitude 37000
Route DOTSS2 CLEEE DCT BLH DCT KOFFA DCT TCS DCT INK/N0467F390 DCT FUSCO DCT CLL DCT BPT DCT BLVNS DCT CIGAR DCT DHP DCT GTK/N0471F410 DCT BQN DCT EMOLA EMOLA2X
Aircraft B772/H-SDE2E3FGHIJ5LORVWXY/LB1D1

Departure

Time N/A
Airport Los Angeles International Airport (KLAX)

Arrival

Time 2026-04-23 21:20
Airport Martinique Aimé Césaire International Airport (TFFF)
Time Latitude Longitude Altitude Speed Heading
2026-04-23 18:16 27.18616 -83.94059 37081 ft 510 kts 116°
2026-04-23 18:17 27.14546 -83.83038 37083 ft 510 kts 117°
2026-04-23 18:17 27.11836 -83.75719 37082 ft 511 kts 116°
2026-04-23 18:18 27.09107 -83.68360 37081 ft 510 kts 116°
2026-04-23 18:18 27.06381 -83.61023 37082 ft 510 kts 116°
2026-04-23 18:19 27.03663 -83.53725 37069 ft 510 kts 116°
2026-04-23 18:19 27.00927 -83.46386 37072 ft 508 kts 116°
2026-04-23 18:20 26.98931 -83.41044 37066 ft 510 kts 116°
2026-04-23 18:20 26.96184 -83.33706 37054 ft 512 kts 116°
2026-04-23 18:21 26.93427 -83.26349 37047 ft 509 kts 116°
2026-04-23 18:21 26.90679 -83.19035 37038 ft 513 kts 116°
2026-04-23 18:22 26.87921 -83.11705 37046 ft 511 kts 116°
2026-04-23 18:22 26.85170 -83.04408 37053 ft 510 kts 116°
2026-04-23 18:23 26.81017 -82.93418 37055 ft 511 kts 115°
2026-04-23 18:24 26.76872 -82.82478 37058 ft 512 kts 115°
2026-04-23 18:25 26.72718 -82.71546 37049 ft 510 kts 116°
2026-04-23 18:25 26.69938 -82.64247 37043 ft 510 kts 115°
2026-04-23 18:26 26.67159 -82.56962 37038 ft 511 kts 116°
2026-04-23 18:26 26.64387 -82.49710 37036 ft 509 kts 116°
2026-04-23 18:27 26.61603 -82.42441 37038 ft 511 kts 116°
2026-04-23 18:27 26.58805 -82.35146 37035 ft 510 kts 116°
2026-04-23 18:28 26.56062 -82.28009 37022 ft 510 kts 116°
2026-04-23 18:28 26.53269 -82.20754 37020 ft 511 kts 116°
2026-04-23 18:29 26.50470 -82.13496 37030 ft 511 kts 116°
2026-04-23 18:29 26.47659 -82.06221 37040 ft 510 kts 116°
2026-04-23 18:30 26.44840 -81.98940 37049 ft 513 kts 116°
2026-04-23 18:30 26.42040 -81.91718 37052 ft 511 kts 116°
2026-04-23 18:31 26.39223 -81.84468 37059 ft 510 kts 116°
2026-04-23 18:31 26.36391 -81.77189 37056 ft 512 kts 116°
2026-04-23 18:32 26.33559 -81.69927 37054 ft 511 kts 116°
2026-04-23 18:32 26.30724 -81.62667 37055 ft 512 kts 116°
2026-04-23 18:33 26.27901 -81.55453 37049 ft 512 kts 116°
2026-04-23 18:33 26.25058 -81.48199 37043 ft 513 kts 116°
2026-04-23 18:34 26.22216 -81.40961 37041 ft 514 kts 116°
2026-04-23 18:34 26.19362 -81.33702 37034 ft 511 kts 117°
2026-04-23 18:35 26.16493 -81.26422 37026 ft 514 kts 116°
2026-04-23 18:35 26.13644 -81.19205 37034 ft 513 kts 116°
2026-04-23 18:36 26.10765 -81.11923 37025 ft 514 kts 117°
2026-04-23 18:36 26.07878 -81.04634 37033 ft 514 kts 116°
2026-04-23 18:37 26.05020 -80.97432 37029 ft 513 kts 117°
2026-04-23 18:37 26.02121 -80.90140 37028 ft 513 kts 116°
2026-04-23 18:38 25.99250 -80.82929 37041 ft 515 kts 117°
2026-04-23 18:38 25.96356 -80.75674 37049 ft 514 kts 116°
2026-04-23 18:39 25.93455 -80.68414 37049 ft 515 kts 117°
2026-04-23 18:39 25.90544 -80.61142 37065 ft 515 kts 116°
2026-04-23 18:40 25.87630 -80.53875 37074 ft 515 kts 116°
2026-04-23 18:40 25.84727 -80.46648 37077 ft 516 kts 117°
2026-04-23 18:41 25.81803 -80.39381 37083 ft 516 kts 117°
2026-04-23 18:41 25.78918 -80.32291 37065 ft 515 kts 118°
2026-04-23 18:42 25.75842 -80.25132 37076 ft 516 kts 119°
2026-04-23 18:42 25.72770 -80.17994 37073 ft 516 kts 119°
2026-04-23 18:43 25.69682 -80.10819 37078 ft 516 kts 119°
2026-04-23 18:43 25.66583 -80.03627 37073 ft 517 kts 119°
2026-04-23 18:44 25.63488 -79.96452 37065 ft 518 kts 119°
2026-04-23 18:44 25.60410 -79.89323 37068 ft 517 kts 119°
2026-04-23 18:45 25.57298 -79.82129 37062 ft 519 kts 119°
2026-04-23 18:45 25.54185 -79.74942 37070 ft 518 kts 119°
2026-04-23 18:46 25.51062 -79.67745 37069 ft 518 kts 119°
2026-04-23 18:46 25.47943 -79.60568 37072 ft 518 kts 119°
2026-04-23 18:47 25.44833 -79.53423 37069 ft 520 kts 120°
2026-04-23 18:47 25.41699 -79.46233 37069 ft 516 kts 120°
2026-04-23 18:48 25.38560 -79.39047 37070 ft 521 kts 120°
2026-04-23 18:48 25.35412 -79.31850 37055 ft 519 kts 120°
2026-04-23 18:49 25.32299 -79.24744 37066 ft 519 kts 120°
2026-04-23 18:49 25.29150 -79.17569 37065 ft 519 kts 120°
2026-04-23 18:50 25.27055 -79.12802 37055 ft 520 kts 121°
2026-04-23 18:50 25.22827 -79.03197 37057 ft 521 kts 121°
2026-04-23 18:51 25.19682 -78.96063 37064 ft 521 kts 121°
2026-04-23 18:51 25.16484 -78.88823 37068 ft 520 kts 121°
2026-04-23 18:52 25.13332 -78.81699 37072 ft 524 kts 121°
2026-04-23 18:52 25.10129 -78.74470 37074 ft 522 kts 121°
2026-04-23 18:53 25.06953 -78.67314 37071 ft 522 kts 121°
2026-04-23 18:53 25.03751 -78.60113 37074 ft 525 kts 121°
2026-04-23 18:54 25.00550 -78.52924 37075 ft 526 kts 121°
2026-04-23 18:54 24.97337 -78.45718 37070 ft 523 kts 121°
2026-04-23 18:55 24.94117 -78.38508 37073 ft 524 kts 121°
2026-04-23 18:55 24.90899 -78.31316 37051 ft 523 kts 122°
2026-04-23 18:56 24.88219 -78.25333 37062 ft 524 kts 122°
2026-04-23 18:56 24.84458 -78.16953 37054 ft 524 kts 122°
2026-04-23 18:57 24.81242 -78.09801 37064 ft 526 kts 122°
2026-04-23 18:57 24.77990 -78.02576 37067 ft 524 kts 122°
2026-04-23 18:58 24.74751 -77.95395 37071 ft 529 kts 122°
2026-04-23 18:58 24.71494 -77.88183 37081 ft 527 kts 122°
2026-04-23 18:59 24.68250 -77.81011 37077 ft 527 kts 122°
2026-04-23 18:59 24.64984 -77.73804 37078 ft 530 kts 122°
2026-04-23 19:00 24.61701 -77.66570 37080 ft 529 kts 122°
2026-04-23 19:00 24.58422 -77.59356 37072 ft 530 kts 122°
2026-04-23 19:01 24.55151 -77.52171 37068 ft 529 kts 122°
2026-04-23 19:01 24.51847 -77.44923 37070 ft 528 kts 122°
2026-04-23 19:02 24.49120 -77.38952 37069 ft 529 kts 122°
2026-04-23 19:02 24.45251 -77.30492 37050 ft 529 kts 123°
2026-04-23 19:03 24.41958 -77.23301 37054 ft 528 kts 122°
2026-04-23 19:03 24.38650 -77.16093 37050 ft 530 kts 122°
2026-04-23 19:04 24.35357 -77.08926 37050 ft 527 kts 123°
2026-04-23 19:04 24.32055 -77.01752 37052 ft 527 kts 122°
2026-04-23 19:05 24.28751 -76.94585 37052 ft 531 kts 122°
2026-04-23 19:05 24.25425 -76.87378 37053 ft 528 kts 123°
2026-04-23 19:06 24.22117 -76.80225 37056 ft 530 kts 123°
2026-04-23 19:06 24.18787 -76.73035 37058 ft 531 kts 123°
2026-04-23 19:07 24.15450 -76.65839 37054 ft 528 kts 123°
2026-04-23 19:07 24.12136 -76.58705 37065 ft 532 kts 123°
2026-04-23 19:08 24.08783 -76.51497 37060 ft 530 kts 123°
2026-04-23 19:08 24.05450 -76.44345 37059 ft 532 kts 123°
2026-04-23 19:09 24.02102 -76.37168 37064 ft 530 kts 123°
2026-04-23 19:09 23.98751 -76.29999 37040 ft 532 kts 123°
2026-04-23 19:10 23.95396 -76.22827 37040 ft 528 kts 123°
2026-04-23 19:10 23.92047 -76.15686 37039 ft 529 kts 123°
2026-04-23 19:11 23.88719 -76.08598 37046 ft 533 kts 123°
2026-04-23 19:11 23.85352 -76.01434 37045 ft 531 kts 124°
2026-04-23 19:12 23.82530 -75.95440 37041 ft 531 kts 124°
2026-04-23 19:12 23.78622 -75.87151 37052 ft 530 kts 123°
2026-04-23 19:13 23.75231 -75.79973 37046 ft 531 kts 124°
2026-04-23 19:13 23.71841 -75.72804 37050 ft 530 kts 124°
2026-04-23 19:14 23.68464 -75.65673 37049 ft 530 kts 124°
2026-04-23 19:14 23.65082 -75.58547 37052 ft 532 kts 124°
2026-04-23 19:15 23.61704 -75.51436 37049 ft 531 kts 124°
2026-04-23 19:15 23.58326 -75.44334 37052 ft 529 kts 124°
2026-04-23 19:16 23.54907 -75.37162 37051 ft 532 kts 124°
2026-04-23 19:16 23.51519 -75.30060 37033 ft 530 kts 124°
2026-04-23 19:17 23.46417 -75.19386 37035 ft 529 kts 124°
2026-04-23 19:17 23.43036 -75.12327 37035 ft 528 kts 124°
2026-04-23 19:18 23.39635 -75.05240 37035 ft 530 kts 124°
2026-04-23 19:18 23.36215 -74.98118 37035 ft 528 kts 124°
2026-04-23 19:19 23.31124 -74.87540 37037 ft 530 kts 124°
2026-04-23 19:20 23.25996 -74.76904 37040 ft 528 kts 124°
2026-04-23 19:20 23.22588 -74.69852 37040 ft 530 kts 124°
2026-04-23 19:21 23.17439 -74.59213 37039 ft 530 kts 124°
2026-04-23 19:22 23.14034 -74.52189 37044 ft 530 kts 124°
2026-04-23 19:22 23.08900 -74.41620 37039 ft 528 kts 124°
2026-04-23 19:23 23.05457 -74.34547 37041 ft 532 kts 125°
2026-04-23 19:24 23.00314 -74.23991 37019 ft 528 kts 125°
2026-04-23 19:24 22.95162 -74.13447 37020 ft 529 kts 125°
2026-04-23 19:25 22.88278 -73.99387 37029 ft 526 kts 125°
2026-04-23 19:26 22.83118 -73.88878 37028 ft 529 kts 125°
2026-04-23 19:27 22.74478 -73.71327 37033 ft 531 kts 125°
2026-04-23 19:28 22.67565 -73.57327 37033 ft 529 kts 125°
2026-04-23 19:29 22.62374 -73.46838 37030 ft 527 kts 125°
2026-04-23 19:30 22.57163 -73.36334 37037 ft 528 kts 125°
2026-04-23 19:31 22.51965 -73.25875 37015 ft 526 kts 125°
2026-04-23 19:31 22.48498 -73.18912 37020 ft 527 kts 126°
2026-04-23 19:32 22.45027 -73.11951 37024 ft 526 kts 126°
2026-04-23 19:32 22.41567 -73.05021 37026 ft 526 kts 126°
2026-04-23 19:33 22.38075 -72.98038 37028 ft 527 kts 125°
2026-04-23 19:33 22.32870 -72.87643 37030 ft 526 kts 125°
2026-04-23 19:34 22.29390 -72.80706 37030 ft 526 kts 125°
2026-04-23 19:35 22.24176 -72.70329 37035 ft 528 kts 125°
2026-04-23 19:35 22.20696 -72.63414 37035 ft 524 kts 125°
2026-04-23 19:36 22.17205 -72.56490 37035 ft 526 kts 125°
2026-04-23 19:36 22.13719 -72.49581 37037 ft 526 kts 125°
2026-04-23 19:37 22.10219 -72.42654 37033 ft 524 kts 125°
2026-04-23 19:37 22.06731 -72.35763 37034 ft 527 kts 124°
2026-04-23 19:38 22.03230 -72.28851 37007 ft 523 kts 125°
2026-04-23 19:38 21.99728 -72.21950 37014 ft 527 kts 125°
2026-04-23 19:39 21.96233 -72.15069 37004 ft 525 kts 125°
2026-04-23 19:39 21.92743 -72.08209 36998 ft 525 kts 125°
2026-04-23 19:40 21.89238 -72.01326 37000 ft 524 kts 125°
2026-04-23 19:40 21.85748 -71.94483 37006 ft 524 kts 125°
2026-04-23 19:41 21.82251 -71.87635 37008 ft 522 kts 125°
2026-04-23 19:41 21.79342 -71.81945 37008 ft 522 kts 125°
2026-04-23 19:42 21.75262 -71.73977 37010 ft 524 kts 125°
2026-04-23 19:42 21.71759 -71.67142 37012 ft 521 kts 125°
2026-04-23 19:43 21.68248 -71.60304 37009 ft 523 kts 125°
2026-04-23 19:43 21.64756 -71.53508 37008 ft 522 kts 125°
2026-04-23 19:44 21.61251 -71.46699 37009 ft 521 kts 125°
2026-04-23 19:44 21.57749 -71.39902 37011 ft 521 kts 125°
2026-04-23 19:45 21.54221 -71.33064 36990 ft 521 kts 126°
2026-04-23 19:45 21.50732 -71.26308 36990 ft 519 kts 126°
2026-04-23 19:46 21.47239 -71.19557 36991 ft 520 kts 126°
2026-04-23 19:46 21.43541 -71.12902 36992 ft 511 kts 133°
2026-04-23 19:47 21.40034 -71.07827 36990 ft 510 kts 134°
2026-04-23 19:47 21.35065 -71.00744 36997 ft 512 kts 134°
2026-04-23 19:48 21.30779 -70.94662 36990 ft 510 kts 134°
2026-04-23 19:48 21.26482 -70.88583 36994 ft 512 kts 134°
2026-04-23 19:49 21.22183 -70.82513 36987 ft 510 kts 134°
2026-04-23 19:49 21.17910 -70.76492 36986 ft 510 kts 134°
2026-04-23 19:50 21.13620 -70.70454 36978 ft 510 kts 134°
2026-04-23 19:50 21.09308 -70.64391 36974 ft 510 kts 134°
2026-04-23 19:51 21.05035 -70.58391 36974 ft 509 kts 134°
2026-04-23 19:51 21.00735 -70.52361 36971 ft 510 kts 134°
2026-04-23 19:52 20.97156 -70.47345 36974 ft 509 kts 134°
2026-04-23 19:52 20.92167 -70.40362 36974 ft 506 kts 134°
2026-04-23 19:53 20.87901 -70.34400 36977 ft 508 kts 134°
2026-04-23 19:53 20.83601 -70.28393 36962 ft 507 kts 134°
2026-04-23 19:54 20.79321 -70.22422 36966 ft 507 kts 135°
2026-04-23 19:54 20.75021 -70.16431 36970 ft 508 kts 135°
2026-04-23 19:55 20.70732 -70.10459 36972 ft 507 kts 134°
2026-04-23 19:55 20.66433 -70.04481 36971 ft 508 kts 134°
2026-04-23 19:56 20.62144 -69.98521 36969 ft 506 kts 134°
2026-04-23 19:56 20.57860 -69.92577 36973 ft 507 kts 134°
2026-04-23 19:57 20.53564 -69.86620 36975 ft 505 kts 134°
2026-04-23 19:57 20.49976 -69.81650 36968 ft 506 kts 134°
2026-04-23 19:58 20.44970 -69.74725 36981 ft 507 kts 134°
2026-04-23 19:58 20.40683 -69.68799 36982 ft 505 kts 134°
2026-04-23 19:59 20.36392 -69.62876 36981 ft 508 kts 134°
2026-04-23 19:59 20.32085 -69.56935 36980 ft 507 kts 134°
2026-04-23 20:00 20.27779 -69.51001 36978 ft 506 kts 134°
2026-04-23 20:00 20.23477 -69.45068 36975 ft 507 kts 132°
2026-04-23 20:01 20.19530 -69.38782 36976 ft 511 kts 129°
2026-04-23 20:01 20.15648 -69.32468 36957 ft 510 kts 129°
2026-04-23 20:02 20.11757 -69.26144 36952 ft 511 kts 129°
2026-04-23 20:02 20.07893 -69.19872 36946 ft 511 kts 129°
2026-04-23 20:03 20.03990 -69.13545 36950 ft 513 kts 129°
2026-04-23 20:03 20.00068 -69.07192 36946 ft 512 kts 129°
2026-04-23 20:04 19.96195 -69.00925 36949 ft 511 kts 129°
2026-04-23 20:04 19.92276 -68.94590 36950 ft 510 kts 129°
2026-04-23 20:05 19.89051 -68.89384 36956 ft 511 kts 129°
2026-04-23 20:05 19.84507 -68.82053 36960 ft 509 kts 129°
2026-04-23 20:06 19.80602 -68.75761 36959 ft 510 kts 129°
2026-04-23 20:06 19.76687 -68.69462 36958 ft 511 kts 129°
2026-04-23 20:07 19.72801 -68.63213 36960 ft 509 kts 129°
2026-04-23 20:07 19.68896 -68.56942 36960 ft 509 kts 129°
2026-04-23 20:08 19.64981 -68.50660 36961 ft 510 kts 129°
2026-04-23 20:08 19.61059 -68.44374 36962 ft 509 kts 129°
2026-04-23 20:09 19.57168 -68.38145 36966 ft 509 kts 129°
2026-04-23 20:09 19.53272 -68.31911 36950 ft 507 kts 129°
2026-04-23 20:10 19.50010 -68.26699 36954 ft 507 kts 129°
2026-04-23 20:10 19.45494 -68.19491 36955 ft 507 kts 129°
2026-04-23 20:11 19.41600 -68.13283 36957 ft 507 kts 130°
2026-04-23 20:11 19.37676 -68.07033 36954 ft 506 kts 129°
2026-04-23 20:12 19.33797 -68.00859 36951 ft 506 kts 129°
2026-04-23 20:12 19.29884 -67.94641 36946 ft 508 kts 129°
2026-04-23 20:13 19.25990 -67.88457 36941 ft 505 kts 129°
2026-04-23 20:13 19.22086 -67.82265 36939 ft 505 kts 129°
2026-04-23 20:14 19.18199 -67.76104 36940 ft 505 kts 129°
2026-04-23 20:14 19.14285 -67.69909 36937 ft 508 kts 129°
2026-04-23 20:15 19.10357 -67.63696 36936 ft 507 kts 129°
2026-04-23 20:15 19.06447 -67.57520 36935 ft 507 kts 129°
2026-04-23 20:16 19.02543 -67.51357 36938 ft 506 kts 129°
2026-04-23 20:16 18.98626 -67.45181 36948 ft 508 kts 129°
2026-04-23 20:17 18.94683 -67.38969 36952 ft 506 kts 129°
2026-04-23 20:17 18.90782 -67.32831 36938 ft 505 kts 129°
2026-04-23 20:18 18.86873 -67.26687 36943 ft 505 kts 129°
2026-04-23 20:18 18.82956 -67.20533 36946 ft 504 kts 129°
2026-04-23 20:19 18.79028 -67.14371 36951 ft 505 kts 129°
2026-04-23 20:19 18.75117 -67.08240 36953 ft 505 kts 129°
2026-04-23 20:20 18.71209 -67.02121 36954 ft 504 kts 129°
2026-04-23 20:20 18.67279 -66.95975 36958 ft 506 kts 129°
2026-04-23 20:21 18.63359 -66.89846 36959 ft 504 kts 129°
2026-04-23 20:21 18.60095 -66.84750 36956 ft 504 kts 129°
2026-04-23 20:22 18.55514 -66.77604 36956 ft 504 kts 129°
2026-04-23 20:22 18.51612 -66.71523 36955 ft 503 kts 129°
2026-04-23 20:23 18.47691 -66.65419 36958 ft 504 kts 129°
2026-04-23 20:23 18.43777 -66.59331 36964 ft 503 kts 129°
2026-04-23 20:24 18.39835 -66.53207 36973 ft 504 kts 129°
2026-04-23 20:24 18.35926 -66.47138 36980 ft 503 kts 129°
2026-04-23 20:25 18.31998 -66.41047 36989 ft 503 kts 129°
2026-04-23 20:25 18.28090 -66.34991 37003 ft 502 kts 129°
2026-04-23 20:26 18.24175 -66.28930 36998 ft 502 kts 129°
2026-04-23 20:26 18.20331 -66.22986 37001 ft 500 kts 130°
2026-04-23 20:27 18.16402 -66.16915 36985 ft 500 kts 129°
2026-04-23 20:27 18.12475 -66.10854 36972 ft 502 kts 130°
2026-04-23 20:28 18.08566 -66.04825 36962 ft 502 kts 130°
2026-04-23 20:28 18.04609 -65.98730 36950 ft 501 kts 130°
2026-04-23 20:29 18.00717 -65.92738 36953 ft 501 kts 129°
2026-04-23 20:29 17.96769 -65.86665 36950 ft 498 kts 129°
2026-04-23 20:30 17.92851 -65.80647 36949 ft 499 kts 129°
2026-04-23 20:30 17.87006 -65.71675 36953 ft 497 kts 129°
2026-04-23 20:31 17.83067 -65.65639 36954 ft 498 kts 129°
2026-04-23 20:31 17.79180 -65.59684 36954 ft 497 kts 129°
2026-04-23 20:32 17.75271 -65.53704 36955 ft 498 kts 129°
2026-04-23 20:32 17.71377 -65.47750 36952 ft 496 kts 129°
2026-04-23 20:33 17.67473 -65.41788 36952 ft 495 kts 129°
2026-04-23 20:33 17.63583 -65.35850 36953 ft 494 kts 129°
2026-04-23 20:34 17.59716 -65.29955 36942 ft 495 kts 129°
2026-04-23 20:34 17.55796 -65.23984 36939 ft 493 kts 129°
2026-04-23 20:35 17.51925 -65.18092 36938 ft 491 kts 129°
2026-04-23 20:35 17.48045 -65.12193 36935 ft 493 kts 129°
2026-04-23 20:36 17.44192 -65.06338 36931 ft 491 kts 129°
2026-04-23 20:36 17.40306 -65.00440 36930 ft 492 kts 129°
2026-04-23 20:37 17.36431 -64.94564 36933 ft 491 kts 129°
2026-04-23 20:37 17.32552 -64.88685 36933 ft 489 kts 129°
2026-04-23 20:38 17.28683 -64.82828 36935 ft 490 kts 129°
2026-04-23 20:38 17.24806 -64.76963 36932 ft 488 kts 129°
2026-04-23 20:39 17.20973 -64.71170 36934 ft 487 kts 129°
2026-04-23 20:39 17.17103 -64.65327 36932 ft 487 kts 129°
2026-04-23 20:40 17.13262 -64.59531 36935 ft 487 kts 128°
2026-04-23 20:40 17.09406 -64.53719 36935 ft 485 kts 129°
2026-04-23 20:41 17.05573 -64.47947 36931 ft 485 kts 128°
2026-04-23 20:41 17.01720 -64.42148 36935 ft 485 kts 128°
2026-04-23 20:42 16.97872 -64.36362 36935 ft 484 kts 128°
2026-04-23 20:42 16.94030 -64.30591 36923 ft 485 kts 129°
2026-04-23 20:43 16.90195 -64.24834 36922 ft 485 kts 129°
2026-04-23 20:43 16.86341 -64.19054 36926 ft 484 kts 129°
2026-04-23 20:44 16.82484 -64.13274 36925 ft 485 kts 129°
2026-04-23 20:44 16.78635 -64.07510 36926 ft 484 kts 129°
2026-04-23 20:45 16.74786 -64.01753 36925 ft 483 kts 129°
2026-04-23 20:45 16.70960 -63.96032 36925 ft 484 kts 129°
2026-04-23 20:46 16.67089 -63.90252 36923 ft 484 kts 129°
2026-04-23 20:46 16.63255 -63.84531 36926 ft 484 kts 129°
2026-04-23 20:47 16.59389 -63.78765 36928 ft 484 kts 129°
2026-04-23 20:47 16.55558 -63.73058 36925 ft 483 kts 129°
2026-04-23 20:48 16.51714 -63.67337 36936 ft 483 kts 129°
2026-04-23 20:48 16.47859 -63.61607 36938 ft 483 kts 129°
2026-04-23 20:49 16.43996 -63.55867 36942 ft 481 kts 130°
2026-04-23 20:49 16.40162 -63.50177 36943 ft 482 kts 130°
2026-04-23 20:50 16.36306 -63.44458 36939 ft 482 kts 130°
2026-04-23 20:50 16.32475 -63.38779 36938 ft 481 kts 130°
2026-04-23 20:51 16.28608 -63.33054 36926 ft 482 kts 130°
2026-04-23 20:51 16.24782 -63.27391 36926 ft 479 kts 130°
2026-04-23 20:52 16.20931 -63.21698 36927 ft 481 kts 130°
2026-04-23 20:52 16.17076 -63.16003 36925 ft 481 kts 130°
2026-04-23 20:53 16.13230 -63.10326 36927 ft 481 kts 130°
2026-04-23 20:53 16.09397 -63.04672 36926 ft 480 kts 130°
2026-04-23 20:54 16.05543 -62.98992 36928 ft 481 kts 130°
2026-04-23 20:54 16.01672 -62.93290 36927 ft 480 kts 130°
2026-04-23 20:55 15.97833 -62.87642 36927 ft 482 kts 130°
2026-04-23 20:55 15.93980 -62.81975 36928 ft 480 kts 130°
2026-04-23 20:56 15.90124 -62.76309 36929 ft 481 kts 130°
2026-04-23 20:56 15.88187 -62.73467 36684 ft 485 kts 130°
2026-04-23 20:56 15.86228 -62.70592 36217 ft 485 kts 130°
2026-04-23 20:57 15.84300 -62.67761 35790 ft 482 kts 130°
2026-04-23 20:57 15.82347 -62.64895 35360 ft 481 kts 130°
2026-04-23 20:57 15.80423 -62.62074 34937 ft 481 kts 130°
2026-04-23 20:57 15.78504 -62.59262 34512 ft 482 kts 130°
2026-04-23 20:58 15.76563 -62.56420 34089 ft 484 kts 130°
2026-04-23 20:58 15.74611 -62.53558 33652 ft 479 kts 130°
2026-04-23 20:58 15.72688 -62.50741 32891 ft 477 kts 130°
2026-04-23 20:58 15.70779 -62.47949 31864 ft 483 kts 130°
2026-04-23 20:59 15.68814 -62.45079 30679 ft 492 kts 129°
2026-04-23 20:59 15.66839 -62.42193 29856 ft 492 kts 128°
2026-04-23 20:59 15.64873 -62.39317 29461 ft 483 kts 128°
2026-04-23 20:59 15.62936 -62.36486 29114 ft 484 kts 128°
2026-04-23 21:00 15.60985 -62.33637 28723 ft 487 kts 128°
2026-04-23 21:00 15.59030 -62.30782 28267 ft 486 kts 128°
2026-04-23 21:00 15.57075 -62.27927 27772 ft 482 kts 128°
2026-04-23 21:00 15.55147 -62.25113 27280 ft 477 kts 128°
2026-04-23 21:01 15.53239 -62.22330 26792 ft 472 kts 128°
2026-04-23 21:01 15.51350 -62.19574 26323 ft 466 kts 128°
2026-04-23 21:01 15.49484 -62.16854 25859 ft 463 kts 127°
2026-04-23 21:01 15.47626 -62.14146 25394 ft 462 kts 127°
2026-04-23 21:02 15.46396 -62.12355 25085 ft 460 kts 127°
2026-04-23 21:02 15.43924 -62.08754 24459 ft 455 kts 127°
2026-04-23 21:02 15.42114 -62.06121 23997 ft 449 kts 127°
2026-04-23 21:02 15.40321 -62.03511 23540 ft 444 kts 127°
2026-04-23 21:03 15.38539 -62.00919 23080 ft 438 kts 127°
2026-04-23 21:03 15.36787 -61.98371 22628 ft 433 kts 127°
2026-04-23 21:03 15.35046 -61.95840 22178 ft 428 kts 127°
2026-04-23 21:03 15.33320 -61.93332 21729 ft 423 kts 127°
2026-04-23 21:04 15.31641 -61.90893 21286 ft 419 kts 127°
2026-04-23 21:04 15.29946 -61.88432 20836 ft 415 kts 127°
2026-04-23 21:04 15.28281 -61.86015 20391 ft 413 kts 127°
2026-04-23 21:04 15.26615 -61.83598 19946 ft 411 kts 127°
2026-04-23 21:05 15.24959 -61.81196 19501 ft 408 kts 127°
2026-04-23 21:05 15.23322 -61.78822 19060 ft 405 kts 127°
2026-04-23 21:05 15.21693 -61.76461 18615 ft 402 kts 127°
2026-04-23 21:05 15.20076 -61.74118 18169 ft 399 kts 127°
2026-04-23 21:06 15.18465 -61.71784 17723 ft 396 kts 127°
2026-04-23 21:06 15.16876 -61.69483 17292 ft 394 kts 127°
2026-04-23 21:06 15.15290 -61.67189 16882 ft 391 kts 128°
2026-04-23 21:06 15.13512 -61.65082 16464 ft 385 kts 139°
2026-04-23 21:07 15.11426 -61.63401 16055 ft 381 kts 148°
2026-04-23 21:07 15.09181 -61.61940 15640 ft 377 kts 150°
2026-04-23 21:07 15.06962 -61.60527 15229 ft 376 kts 149°
2026-04-23 21:07 15.04738 -61.59117 14814 ft 373 kts 149°
2026-04-23 21:08 15.02513 -61.57709 14391 ft 370 kts 149°
2026-04-23 21:08 15.00338 -61.56336 13984 ft 368 kts 149°
2026-04-23 21:08 14.98147 -61.54953 13566 ft 366 kts 149°
2026-04-23 21:08 14.95984 -61.53590 13140 ft 364 kts 149°
2026-04-23 21:09 14.93805 -61.52218 12670 ft 362 kts 149°
2026-04-23 21:09 14.91676 -61.50878 12241 ft 358 kts 149°
2026-04-23 21:09 14.89561 -61.49547 11822 ft 355 kts 149°
2026-04-23 21:09 14.87453 -61.48220 11400 ft 352 kts 149°
2026-04-23 21:10 14.85347 -61.46896 10973 ft 351 kts 149°
2026-04-23 21:10 14.83270 -61.45591 10552 ft 348 kts 149°
2026-04-23 21:10 14.81230 -61.44309 10135 ft 345 kts 149°
2026-04-23 21:10 14.79174 -61.43017 9926 ft 335 kts 149°
2026-04-23 21:11 14.77229 -61.41795 9898 ft 317 kts 149°
2026-04-23 21:11 14.75393 -61.40641 9897 ft 299 kts 149°
2026-04-23 21:11 14.73656 -61.39551 9867 ft 284 kts 149°
2026-04-23 21:11 14.72018 -61.38523 9832 ft 271 kts 149°
2026-04-23 21:12 14.70389 -61.37501 9403 ft 273 kts 149°
2026-04-23 21:12 14.68755 -61.36477 8839 ft 278 kts 148°
2026-04-23 21:12 14.67090 -61.35432 8226 ft 285 kts 148°
2026-04-23 21:12 14.65383 -61.34361 7559 ft 291 kts 149°
2026-04-23 21:13 14.63655 -61.33277 6977 ft 290 kts 148°
2026-04-23 21:13 14.61914 -61.32185 6608 ft 282 kts 148°
2026-04-23 21:13 14.60318 -61.31185 6812 ft 256 kts 148°
2026-04-23 21:13 14.58837 -61.30256 6999 ft 247 kts 148°
2026-04-23 21:14 14.57343 -61.29320 6646 ft 252 kts 148°
2026-04-23 21:14 14.55917 -61.28248 6082 ft 258 kts 130°
2026-04-23 21:14 14.55074 -61.26632 5502 ft 262 kts 102°
2026-04-23 21:14 14.54956 -61.24736 4796 ft 272 kts 84°
2026-04-23 21:15 14.55242 -61.22796 4088 ft 279 kts 80°
2026-04-23 21:15 14.55559 -61.20931 3737 ft 248 kts 80°
2026-04-23 21:15 14.55842 -61.19218 3429 ft 232 kts 80°
2026-04-23 21:15 14.56098 -61.17674 3167 ft 209 kts 80°
2026-04-23 21:16 14.56336 -61.16270 2900 ft 188 kts 79°
2026-04-23 21:16 14.56557 -61.15007 2658 ft 174 kts 79°
2026-04-23 21:16 14.56760 -61.13850 2435 ft 154 kts 79°
2026-04-23 21:16 14.56943 -61.12803 2240 ft 142 kts 79°
2026-04-23 21:17 14.57114 -61.11819 2043 ft 137 kts 79°
2026-04-23 21:17 14.57282 -61.10854 1847 ft 135 kts 80°
2026-04-23 21:17 14.57446 -61.09909 1651 ft 133 kts 80°
2026-04-23 21:17 14.57608 -61.08975 1460 ft 134 kts 79°
2026-04-23 21:18 14.57760 -61.08070 1269 ft 132 kts 79°
2026-04-23 21:18 14.57930 -61.07124 1066 ft 134 kts 79°
2026-04-23 21:18 14.58101 -61.06187 861 ft 132 kts 78°
2026-04-23 21:18 14.58264 -61.05248 644 ft 131 kts 79°
2026-04-23 21:19 14.58416 -61.04312 455 ft 132 kts 79°
2026-04-23 21:19 14.58578 -61.03385 349 ft 135 kts 78°
2026-04-23 21:19 14.58752 -61.02405 164 ft 137 kts 79°
2026-04-23 21:19 14.58915 -61.01456 44 ft 130 kts 79°
2026-04-23 21:20 14.59047 -61.00681 39 ft 88 kts 81°
2026-04-23 21:20 14.59125 -61.00216 36 ft 45 kts 80°
2026-04-23 21:20 14.59179 -60.99898 40 ft 46 kts 79°
2026-04-23 21:20 14.59210 -60.99714 43 ft 13 kts 80°
2026-04-23 21:21 14.59277 -60.99660 42 ft 14 kts
2026-04-23 21:21 14.59314 -60.99665 43 ft 0 kts 352°
2026-04-23 21:21 14.59315 -60.99665 43 ft 1 kts 352°
2026-04-23 21:21 14.59352 -60.99671 43 ft 9 kts 350°
2026-04-23 21:22 14.59396 -60.99737 44 ft 15 kts 269°
2026-04-23 21:22 14.59381 -60.99840 43 ft 12 kts 261°
2026-04-23 21:22 14.59363 -60.99945 41 ft 13 kts 261°
2026-04-23 21:22 14.59363 -61.00029 39 ft 7 kts 277°
2026-04-23 21:23 14.59391 -61.00066 39 ft 8 kts 17°
2026-04-23 21:23 14.59424 -61.00050 39 ft 3 kts 25°
2026-04-23 21:23 14.59449 -61.00039 39 ft 0 kts 22°